Location: Unspecified
(0.0000°N, 0.0000°E)
Time: 13:44:19
(UTC+00:00)

Vanguard 3 - Pass Details

Date: 23 November 2019
Orbit: 508 x 3263 km, 33.3° (Epoch: 08 December)

Event Time Altitude Azimuth Distance (km) Brightness Sun altitude
Rises 13:54:56 0° 294° (WNW) 6,726 12.1 52.5°
Reaches altitude 10° 14:01:48 10° 311° (NW) 6,019 11.8 51.1°
Maximum altitude 14:13:48 19° 349° (N) 5,447 11.4 48.6°
Drops below altitude 10° 14:25:37 10° 28° (NNE) 5,883 11.3 46.1°
Sets 14:32:16 0° 45° (NE) 6,526 11.3 44.6°
